Regional Weather Roundup
Issued by NWS Sterling, VA

Home | Current Version | Previous Version | Graphics & Text | Print | Product List | Glossary On
Versions: 1 2 3 4 5 6 7 8 9 10 11 12 13 14 15 16 17 18 19 20 21 22 23 24 25 26 27
000
ASUS41 KLWX 251510
RWRLWX

REGIONAL WEATHER ROUNDUP
NATIONAL WEATHER SERVICE BALTIMORE MD/WASHINGTON DC
1100 AM EDT SUN SEP 25 2016

Note: "FAIR" indicates few or no clouds below 12,000 feet
with no significant weather and/or obstructions to visibility.
 TC=TEMPERATURE CELSIUS

 * =Non NWS site. Station does not report precipitation (e.g. rain,
    snow, etc.), thunder, or fog.

DCZ001-MDZ009-015-VAZ040>042-051-053>054-251600-
WASHINGTON METRO

CITY           SKY/WX    TMP DP  RH WIND       PRES   REMARKS
WASHINGTON NAT MOSUNNY   68  45  43 NE7       30.23S
DULLES         PTSUNNY   65  42  43 VRB3      30.23R
ANDREWS AFB    SUNNY     65  49  54 NE7       30.21S
FT BELVOIR     SUNNY     67  45  45 VRB5      30.22S
QUANTICO         N/A     66  52  60 NE7       30.23S
COLLEGE PARK*  SUNNY     63  43  48 N5        30.22S
LEESBURG*      CLOUDY    64  46  52 CALM      30.25S
MANASSAS*      CLOUDY    63  46  55 CALM      30.23S
GAITHERSBURG*  SUNNY     63  43  48 NE6       30.27S

$$

MDZ006>007-011-014-251600-
BALTIMORE METRO

CITY           SKY/WX    TMP DP  RH WIND       PRES   REMARKS
BWI AIRPORT    MOSUNNY   66  40  38 E6        30.22S
MD SCIENCE CTR   N/A     64  41  42 MISG      30.23S
MARTIN STATE   SUNNY     66  48  52 NE9       30.25R
ANNAPOLIS      SUNNY     66  47  50 NE8       30.22R
FORT MEADE*    SUNNY     64  43  45 E8        30.25S

$$

MDZ012-015-019>023-251600-
MARYLAND EASTERN SHORE

CITY           SKY/WX    TMP DP  RH WIND       PRES   REMARKS
OCEAN CITY     MOSUNNY   71  56  58 N8        30.19R
SALISBURY      SUNNY     68  51  54 N7        30.19S
BAY BRIDGE AP* SUNNY     66  46  48 MISG      30.22S
CAMBRIDGE*     SUNNY     63  50  63 N5        30.20S

$$

MDZ017>025-251600-
SOUTHERN MARYLAND

CITY           SKY/WX    TMP DP  RH WIND       PRES   REMARKS
PATUXENT RIVER MOSUNNY   67  48  50 NE6       30.21S
ST INIGOES     SUNNY     68  49  50 NE8       30.20S
LEONARDTOWN*   SUNNY     64  50  59 N3        30.22S

$$

MDZ003>005-251600-
NORTH CENTRAL MARYLAND

CITY           SKY/WX    TMP DP  RH WIND       PRES   REMARKS
FREDERICK*     SUNNY     66  46  48 N5        30.26S
HAGERSTOWN APT SUNNY     67  40  37 CALM      30.23S

$$

MDZ501>502-251600-
WESTERN MARYLAND

CITY           SKY/WX    TMP DP  RH WIND       PRES   REMARKS
OAKLAND*       SUNNY     59  48  67 SE6       30.23R
CUMBERLAND*    CLOUDY    63  45  51 CALM      30.27S

$$

VAZ025>031-251600-
SHENANDOAH VALLEY

CITY           SKY/WX    TMP DP  RH WIND       PRES   REMARKS
WINCHESTER*    CLOUDY    63  45  51 CALM      30.24R
FRONT ROYAL*   CLOUDY    61  46  59 NE5       30.23R
LURAY*         CLOUDY    59  50  72 NE5       30.22S
NEW MARKET*    CLOUDY   N/A N/A N/A N6        30.22S
STAUNTON*      DRZL/FOG  58  57  98 NW6       30.24R VSB 1
WAYNESBORO*    CLOUDY    62  58  87 E7        30.22S

$$

WVZ021-048>050-054>055-251600-
EASTERN WEST VIRGINIA PANHANDLE

CITY           SKY/WX    TMP DP  RH WIND       PRES   REMARKS
MARTINSBURG    CLOUDY    64  45  49 CALM      30.23S
PETERSBURG*    CLOUDY    64  52  64 CALM      30.21F

$$

VAZ036>039-050-251600-
CENTRAL FOOTHILLS

CITY           SKY/WX    TMP DP  RH WIND       PRES   REMARKS
CHARLOTTESVILL CLOUDY    59  54  83 NE12      30.22S
CULPEPER*      CLOUDY    61  49  64 N5        30.24S
ORANGE*          N/A     59  55  88 CALM      30.24S
GORDONSVILLE*  CLOUDY    57  55  94 N3        30.22R FOG
WARRENTON*     CLOUDY    62  45  53 NE5       30.23S

$$

VAZ055>057-251600-
NORTH AND CENTRAL PIEDMONT

CITY           SKY/WX    TMP DP  RH WIND       PRES   REMARKS
FREDERICKSBRG* PTSUNNY   66  56  70 NE5       30.21S
STAFFORD*      CLOUDY    64  51  63 NE6       30.26S

$$

NCZ024-NYZ072-PAZ021-071-VAZ022-071-251600-
OTHER REGIONAL OBSERVATIONS

CITY           SKY/WX    TMP DP  RH WIND       PRES   REMARKS
NEW YORK CITY  SUNNY     61  42  49 VRB3      30.23R
PHILADELPHIA   SUNNY     66  40  38 N9G18     30.23S
PITTSBURGH     MOSUNNY   63  50  62 NE5       30.20S
ROANOKE        CLOUDY    69  64  84 SE7       30.21S
RICHMOND       CLOUDY    70  58  65 NE7       30.19S
RALEIGH        CLOUDY    72  66  81 E8        30.17R

$$

ANZ530>537-251600-
MARINE OBSERVATIONS

STATION/POSITION TIME  TEMP    WIND        PRES
                       AIR SEA DIR/SP/G
                 (UTC) (F)     (DEG/KT/KT) (MB)
THOMAS PT LIGHT  1500   62 75   20/  9/ 10 1024.7R
BALT KEY BRIDGE  1442   62      30/  8/ 10 1023.6R
COVE POINT       1442   63      30/  4/  6 1023.6F
LEWISETTA        1442   66 74   70/  8/ 11 1022.5R
SOLOMONS ISLAND  1442   65 76   40/  4/  8   N/A
PINEY POINT      1448          100/  9/ 10   N/A

$$





USA.gov is the U.S. government's official web portal to all federal, state and local government web resources and services.